Location: Brunsen
(51.8651°N, 9.8610°E)
Time: 13:02:38
(UTC+00:00)

Cosmos 2360 Rocket - Pass Details

Date: 23 May 2024
Orbit: 832 x 846 km, 71.0° (Epoch: 12 June)

Event Time Altitude Azimuth Distance (km) Brightness Sun altitude
Rises 00:12:47 0° 330° (NNW) 3,416 6.1 -16.5°
Reaches altitude 10° 00:15:28 10° 339° (NNW) 2,479 5.5 -16.4°
Maximum altitude 00:20:39 35° 45° (NE) 1,344 3.8 -16.2°
Drops below altitude 10° 00:25:49 10° 111° (ESE) 2,469 4.6 -16.0°
Sets 00:28:29 0° 120° (ESE) 3,400 5.2 -15.8°
